Theta_e
314 313 313 312 312 311 311 310 310 309 308 307 307 306 305 302 300 299 292 293 293 288 285 284 285 283 284 283 280 282 282 282 281 278 277 275 276 277 275 277 276 276 275 275 277 273 270 280 279 274 277 280 280 279
314 313 312 312 311 311 310 310 309 309 308 307 307 306 305 302 299 298 292 291 293 288 285 288 288 288 286 286 283 283 281 280 280 278 279 278 277 278 275 276 282 276 277 275 277 276 281 281 279 281 281 278 279 279
313 312 312 311 311 310 310 309 308 308 308 307 306 306 304 302 299 297 293 291 292 285 284 285 282 286 289 288 290 282 283 284 282 282 279 279 275 278 276 278 278 281 282 279 280 282 280 279 281 280 280 279 279 279
311 312 311 311 310 310 309 307 307 308 307 306 306 305 303 301 297 295 293 291 290 287 284 280 286 284 286 287 288 288 285 286 285 284 279 279 277 280 278 278 278 281 280 279 281 283 284 281 279 278 278 280 278 277
310 311 310 310 310 309 307 307 307 307 306 306 305 304 302 299 295 292 290 289 290 289 285 281 281 282 284 284 285 286 285 284 283 280 278 279 281 279 281 279 280 280 278 280 279 281 281 278 277 277 275 275 276 276
310 310 310 309 309 308 307 307 307 306 305 305 303 302 299 297 295 291 284 289 289 291 284 280 279 279 281 283 284 284 285 284 283 280 280 281 282 279 277 278 280 280 281 281 281 280 281 279 277 276 273 273 273 273
309 309 309 309 308 308 307 307 306 305 304 303 302 300 298 295 292 287 285 288 289 289 284 278 278 279 279 281 283 283 284 282 282 280 279 278 279 278 278 277 279 279 279 278 278 278 279 278 275 275 273 272 271 269
309 309 309 308 307 307 307 306 305 304 303 302 300 297 296 294 291 286 287 287 286 284 284 278 277 277 280 278 278 281 280 281 277 277 277 275 277 277 274 280 279 278 278 277 276 277 276 275 274 273 274 272 270 269
308 308 308 307 307 306 306 305 304 303 301 299 297 294 291 286 285 284 286 284 284 285 282 279 280 278 279 279 280 278 279 275 275 276 274 271 277 274 280 279 278 277 278 276 274 273 273 272 271 270 270 269 268 267
307 307 307 306 306 305 305 304 303 300 298 297 291 286 281 283 289 287 284 283 283 279 279 279 274 276 278 277 274 275 274 275 275 272 269 271 276 278 276 274 275 274 275 275 271 270 268 269 268 267 266 266 266 265
306 306 306 305 305 304 303 302 299 298 296 287 284 280 281 286 283 281 277 278 277 276 277 274 275 274 276 276 276 273 274 270 274 272 272 276 276 278 272 269 268 269 271 270 269 270 271 272 267 264 263 264 263 263
306 305 305 305 304 303 301 299 298 293 287 288 284 282 281 280 279 278 276 270 271 278 271 275 273 276 274 276 275 270 273 269 275 266 271 275 281 271 269 266 265 265 266 265 267 268 268 268 266 265 263 262 261 261
305 305 305 304 303 301 299 299 300 292 289 286 284 278 279 274 275 274 273 274 272 271 270 271 272 274 271 274 271 273 273 274 266 271 276 281 273 270 266 263 261 260 262 263 263 263 263 262 261 261 260 260 261 260
305 305 304 303 301 300 300 297 294 293 287 285 281 275 277 273 275 279 283 282 274 274 272 275 271 275 272 273 271 274 267 267 274 273 279 282 273 268 263 263 262 261 262 263 263 262 261 261 260 259 260 260 261 260
304 304 303 301 300 300 297 295 295 286 286 284 284 280 273 275 269 267 266 271 269 275 273 272 272 274 271 270 269 270 269 274 277 281 285 278 269 264 263 263 264 263 261 262 262 261 260 259 260 259 259 260 260 260
303 302 300 300 300 298 296 295 287 285 280 281 276 275 270 276 270 268 269 271 270 273 273 277 272 273 273 272 271 273 277 276 283 282 278 269 265 264 264 264 264 264 263 262 262 261 260 259 260 260 259 259 259 260
301 294 300 300 298 297 297 287 290 280 282 278 275 274 277 277 278 275 274 274 272 275 278 276 274 275 268 271 272 274 277 286 283 274 271 271 268 265 264 263 262 262 262 262 261 261 261 260 258 259 259 259 260 259
295 298 297 297 296 292 284 284 283 283 278 272 276 273 272 272 271 269 269 271 274 275 274 277 272 272 274 274 277 280 277 270 267 270 269 265 265 264 264 264 262 263 262 261 261 260 259 259 261 262 260 260 259 259
297 296 297 296 294 288 285 281 280 276 270 270 269 269 268 266 265 267 269 269 269 270 272 272 274 275 278 278 281 279 273 272 269 266 265 262 264 262 263 263 262 262 261 261 261 262 262 262 265 263 263 262 262 262
297 297 297 297 290 284 280 277 280 276 272 271 270 269 268 267 266 267 269 269 271 272 272 272 276 282 280 281 279 279 274 270 268 266 265 263 263 262 263 263 264 263 262 261 262 262 261 262 263 263 263 264 263 262
295 292 291 285 279 276 274 274 271 271 270 270 269 271 267 268 269 270 270 269 271 273 275 278 279 277 265 264 264 268 270 271 273 274 270 264 263 265 263 264 262 263 262 262 262 262 262 263 263 263 262 262 263 262
288 291 285 284 277 274 272 271 272 271 270 268 270 272 270 270 269 269 268 270 272 277 278 279 275 272 265 265 264 263 267 266 264 265 265 264 262 263 262 262 263 262 263 263 263 262 263 263 262 262 262 261 261 261
291 288 283 283 277 275 269 271 272 271 272 269 269 271 270 269 266 265 267 272 275 279 274 270 264 261 266 259 260 260 261 266 266 267 265 268 266 266 264 262 264 263 262 263 264 263 262 261 261 262 261 261 260 260
286 278 276 273 274 268 269 268 270 270 271 271 272 270 268 267 264 266 268 273 276 265 263 262 262 262 261 260 263 263 262 266 266 265 266 265 264 263 263 263 264 265 265 263 263 262 261 261 261 261 261 260 260 260
283 276 277 268 268 269 268 268 268 271 270 270 270 267 266 263 267 267 268 274 271 266 263 261 263 265 270 266 264 263 259 265 265 264 264 266 263 261 261 262 262 262 263 262 261 260 261 261 261 261 261 260 260 259
273 271 272 272 269 271 271 270 270 271 271 269 267 262 264 266 265 269 272 273 267 263 261 261 263 263 263 265 264 262 262 262 266 264 261 262 263 263 261 260 259 259 262 263 262 261 260 261 261 260 260 260 260 259
269 268 267 265 271 270 270 271 272 272 268 268 266 263 265 265 269 274 265 260 261 258 257 258 261 264 265 262 259 260 261 263 262 263 262 263 264 265 264 263 261 263 262 263 263 262 261 261 260 260 260 259 259 259
268 267 269 268 268 270 271 272 271 270 271 269 268 266 268 270 274 267 261 256 255 255 256 256 257 259 260 260 259 259 258 258 259 260 260 260 260 261 261 262 262 264 263 263 263 263 262 262 261 261 260 259 258 257
267 266 270 264 264 267 270 272 272 269 264 270 271 271 270 267 260 259 256 255 254 256 257 257 256 257 257 257 258 259 260 261 260 259 259 259 258 259 260 261 262 262 263 263 265 264 263 263 262 261 260 259 258 256
264 263 266 264 269 271 265 260 263 258 257 258 257 261 261 260 256 255 254 254 255 257 258 258 257 258 258 258 257 257 257 258 259 263 262 260 261 259 260 260 261 262 263 263 263 264 266 261 259 256 256 255 255 255
260 264 265 264 266 259 257 256 256 256 256 257 255 259 262 258 256 254 254 255 255 256 256 256 256 258 258 258 259 258 257 258 257 258 259 260 259 260 260 260 261 262 263 262 262 260 258 257 257 257 256 256 255 256
261 261 265 264 261 256 256 257 258 259 259 259 260 256 258 259 262 254 252 254 255 255 255 256 257 257 258 259 259 260 259 260 258 259 259 260 260 260 261 261 262 262 262 261 260 258 258 257 257 257 257 256 256 255
258 259 258 257 256 256 257 258 259 258 259 258 258 257 257 257 260 252 254 253 253 254 255 256 257 257 257 258 259 258 259 260 260 262 262 262 261 261 261 262 262 262 260 260 259 258 258 257 257 256 256 256 255 255
Wind_Speed
29 32 33 34 34 33 31 29 28 26 25 23 22 20 19 17 13 3 3 1 2 1 2 2 1 2 1 2 3 6 6 2 4 6 5 4 4 5 5 5 9 7 8 7 7 8 9 26 13 12 8 10 13 16
31 31 32 33 33 32 32 31 28 27 26 24 22 21 20 18 13 6 3 2 1 4 3 2 4 5 3 4 3 3 3 4 4 4 2 3 3 4 4 5 7 5 5 5 8 5 5 9 8 10 10 8 12 13
28 33 33 33 32 33 33 32 30 27 27 24 23 22 21 18 13 4 4 5 2 3 2 2 3 4 5 5 4 2 2 3 1 1 3 2 3 2 5 4 6 3 7 2 2 6 7 11 10 13 12 13 13 15
28 29 31 33 34 34 34 33 30 28 27 25 24 22 20 18 14 7 3 4 2 2 2 2 1 4 4 6 1 2 2 3 2 1 2 2 3 2 3 4 3 3 7 5 3 4 2 11 13 12 10 10 13 15
26 29 30 33 34 34 34 34 31 29 28 26 25 23 21 18 15 9 4 2 1 0 1 3 1 3 3 5 1 0 1 2 1 1 2 1 2 3 1 3 3 3 3 3 3 5 3 5 9 10 10 12 13 13
28 29 31 32 32 32 33 33 30 30 28 27 27 25 22 20 16 3 1 2 2 2 3 2 1 1 2 4 2 2 1 1 1 1 2 2 1 3 3 3 3 1 2 4 3 3 4 7 10 10 11 12 12 13
27 30 32 32 34 36 36 35 33 32 30 29 28 26 22 16 5 2 1 2 4 1 2 2 3 2 1 3 0 0 1 1 1 0 1 3 1 3 2 3 5 3 3 3 4 2 3 8 5 7 9 9 10 11
27 30 33 34 34 35 36 35 34 33 33 31 29 25 20 21 13 3 3 4 1 4 1 2 2 3 3 2 2 2 1 1 2 1 1 2 2 1 5 5 4 5 6 4 4 4 5 8 7 7 6 6 9 11
27 29 32 34 36 36 37 37 36 35 36 34 33 24 6 5 2 3 7 6 3 1 1 2 4 3 3 2 2 1 2 2 1 2 2 2 2 6 3 6 9 6 4 8 6 6 6 6 7 6 5 6 9 8
27 30 35 36 38 40 41 40 40 40 39 34 8 3 4 2 13 7 1 1 0 2 1 3 1 4 3 4 2 2 1 1 2 2 1 3 5 1 3 3 6 5 4 7 5 4 3 3 4 3 3 3 5 5
28 30 35 39 41 44 45 45 44 42 25 4 4 4 3 3 1 1 2 2 1 3 3 2 1 4 2 3 3 1 1 1 2 2 3 2 5 3 6 6 3 2 4 5 1 1 2 7 9 8 5 4 4 5
29 32 37 40 44 46 48 48 44 13 5 10 14 8 4 2 2 3 2 1 4 3 3 4 3 2 4 1 2 3 1 2 3 1 1 4 3 5 6 4 4 3 3 4 1 5 7 9 7 7 7 6 3 5
34 35 38 44 48 50 50 46 30 37 24 5 6 5 3 1 4 8 9 4 4 7 7 6 4 3 3 1 3 3 4 2 2 3 5 5 4 6 6 5 4 2 4 5 5 6 8 7 7 5 7 4 5 5
35 36 40 44 49 49 48 40 40 20 7 5 7 7 7 6 7 6 3 3 3 5 9 6 5 2 2 3 1 3 2 2 3 3 5 2 6 8 6 4 6 6 6 7 8 7 8 8 7 5 5 4 5 6
38 43 44 46 49 47 42 38 25 6 4 5 5 7 7 3 4 3 3 3 1 6 6 6 4 1 2 3 1 3 2 5 5 5 1 2 5 8 8 6 7 8 6 6 6 6 7 6 6 6 4 4 5 5
43 42 23 47 46 42 39 24 7 4 3 2 4 4 1 2 2 3 3 4 3 5 3 2 4 3 3 3 4 7 3 6 4 3 3 6 8 7 7 7 7 8 8 7 6 7 7 6 7 7 5 5 4 5
38 5 43 42 43 38 29 8 4 4 1 3 2 1 1 3 4 4 4 5 5 4 3 3 5 3 4 2 4 5 6 2 1 3 4 3 7 9 8 7 8 8 8 8 7 7 6 6 7 6 7 4 5 5
15 30 44 45 32 20 6 5 4 2 3 2 2 3 2 3 4 3 2 6 6 3 3 3 6 4 5 5 4 5 4 2 2 2 4 4 3 6 8 11 8 9 9 8 8 7 7 8 6 6 7 7 5 4
31 31 46 43 19 9 6 3 2 4 3 2 3 2 3 3 3 3 3 3 2 1 5 2 2 5 5 5 3 2 3 4 4 3 3 3 5 7 8 9 9 8 9 8 8 7 6 7 4 6 6 6 5 5
44 43 41 28 10 6 6 4 1 5 4 3 3 3 3 3 2 3 4 1 1 2 2 5 7 3 4 1 1 2 3 7 7 5 3 4 5 7 8 9 7 9 7 7 5 6 5 5 4 5 5 5 5 5
29 18 21 11 5 8 6 3 5 3 4 3 3 2 4 2 3 3 3 1 1 4 5 5 4 1 2 1 1 2 5 8 6 4 5 7 7 7 7 6 9 8 6 7 7 6 5 5 5 5 5 5 4 4
9 15 6 4 7 5 7 5 4 3 3 3 3 2 3 2 3 3 3 2 5 5 5 3 2 3 3 3 4 3 2 3 6 6 9 14 10 8 9 8 9 9 7 7 7 7 6 5 5 5 6 6 5 4
15 7 6 4 7 7 2 2 3 2 4 4 2 3 2 2 3 1 3 5 5 4 1 2 2 2 2 2 2 3 3 5 4 5 7 6 7 6 8 8 7 9 8 6 6 7 6 7 7 6 6 7 6 5
12 8 6 5 5 5 1 3 2 3 3 2 3 3 1 2 2 1 5 4 4 2 3 4 4 4 2 2 3 3 5 3 4 4 5 8 8 6 7 7 6 5 5 7 6 7 7 7 8 7 7 7 6 5
9 5 5 6 3 6 5 4 2 2 3 3 4 2 3 2 1 4 5 5 1 1 1 3 3 3 2 3 3 3 2 5 6 6 5 5 7 7 6 5 4 4 7 9 8 8 8 7 7 7 7 6 6 6
8 4 3 4 4 4 6 6 6 5 4 4 2 3 2 2 1 8 5 2 1 0 2 4 5 4 3 1 3 5 5 4 4 4 4 6 8 9 10 10 8 6 5 7 10 11 10 9 9 10 8 7 7 6
6 1 2 1 3 5 5 3 2 4 5 6 6 6 4 4 7 5 2 1 1 1 1 2 1 3 0 3 1 2 4 4 3 1 5 5 2 2 7 10 11 6 9 9 10 11 12 11 10 9 8 6 6 5
3 3 7 4 3 1 5 4 5 7 5 4 7 7 9 8 5 2 1 1 2 1 1 1 2 2 2 3 4 6 5 6 8 8 8 6 4 2 3 3 5 15 10 9 9 9 10 10 10 9 9 8 6 4
3 0 3 3 2 3 4 4 5 2 1 5 5 4 4 1 1 1 1 1 1 2 2 3 3 3 4 5 5 3 6 7 8 7 8 5 4 3 2 5 7 7 8 9 12 11 11 9 9 7 7 6 5 5
1 0 3 2 4 4 2 3 2 1 1 2 1 2 2 1 1 1 1 0 1 1 1 2 4 4 4 5 5 3 1 2 2 1 5 6 5 7 7 7 8 8 8 9 10 11 14 11 11 5 6 5 4 4
0 1 3 2 2 2 2 2 1 1 1 1 1 1 2 2 1 3 2 3 2 1 1 2 2 2 4 5 5 6 4 3 2 2 1 3 7 8 8 8 7 8 9 10 10 10 10 8 7 8 7 6 6 4
3 3 2 2 1 2 0 0 1 2 1 1 0 1 2 2 1 3 4 3 1 0 1 1 2 2 1 1 1 1 2 4 5 3 5 5 7 8 8 8 8 8 10 10 9 10 10 9 8 7 7 7 5 4
3 3 3 3 2 1 2 2 1 0 1 1 0 1 1 2 2 3 2 3 3 3 3 1 1 1 2 1 1 1 1 3 6 7 8 10 12 11 8 7 8 9 11 9 9 9 10 10 8 7 6 5 4 3
Wind_Direction
191 188 187 185 182 182 176 178 173 172 169 175 174 164 161 163 156 129 89 15 298 177 123 145 64 61 303 295 332 354 292 79 329 17 1 23 324 1 291 316 332 347 340 3 346 24 10 352 351 41 343 8 1 21
193 188 186 185 185 179 175 174 173 168 169 176 170 163 159 161 154 134 117 108 352 82 65 51 110 68 4 342 328 9 2 348 349 315 23 298 331 319 340 354 11 40 15 354 24 46 29 333 14 16 16 26 23 46
194 187 186 186 182 180 174 173 173 171 170 173 165 160 157 160 154 114 119 138 107 124 118 179 128 59 33 6 332 304 127 346 49 24 319 328 306 319 347 10 304 89 18 37 205 20 60 24 12 15 12 33 33 45
193 191 183 181 179 178 173 169 169 170 169 166 159 155 154 152 142 119 136 150 84 113 224 120 90 91 348 341 34 21 16 301 262 294 309 308 306 21 331 317 315 8 316 355 74 43 192 52 20 12 26 35 60 50
188 190 184 182 181 175 171 167 167 165 163 159 151 147 145 139 120 92 94 128 16 205 43 117 124 16 337 319 287 145 270 297 317 302 272 296 308 308 242 287 259 20 4 352 71 35 11 39 16 26 44 42 39 54
190 187 185 181 177 170 165 161 164 160 155 148 142 141 138 137 128 135 49 170 172 281 120 196 78 16 344 298 245 110 75 96 263 302 297 287 18 301 303 278 109 88 66 13 60 18 57 91 58 47 55 45 48 53
187 184 181 179 172 169 165 159 159 152 147 141 139 136 137 130 81 83 150 82 156 234 121 145 166 108 334 309 309 145 58 83 321 220 254 302 252 315 262 261 121 116 70 57 50 354 108 29 74 70 76 74 67 65
188 184 181 174 169 166 159 154 148 145 140 134 129 125 115 103 115 88 46 84 66 103 9 165 108 173 174 188 189 352 189 185 43 41 207 316 304 254 252 229 151 137 133 101 70 78 93 110 87 70 68 74 66 65
184 180 174 170 163 158 150 146 142 139 129 125 121 119 92 48 99 108 111 84 60 44 209 209 205 156 178 122 72 97 323 221 49 243 109 256 180 231 214 176 183 179 170 140 104 91 93 107 109 85 87 71 96 94
181 178 173 165 158 151 144 140 136 130 125 124 93 92 110 66 118 135 45 107 50 355 11 220 330 127 197 163 144 169 328 354 228 106 293 227 260 101 149 114 101 128 131 143 114 111 109 112 123 101 101 82 90 105
174 173 170 163 155 147 140 136 134 130 124 81 120 86 77 119 158 45 116 211 94 228 178 95 261 137 205 160 161 262 139 68 263 96 273 214 260 185 149 143 124 131 170 174 141 39 125 143 149 139 126 102 102 103
168 169 165 155 149 142 137 139 139 122 134 132 109 104 117 155 108 178 182 123 223 217 154 160 131 72 126 261 165 178 193 192 233 118 260 257 215 138 152 150 145 155 156 120 86 130 112 110 122 123 120 115 97 96
162 161 156 154 147 143 143 146 131 121 116 100 70 91 165 136 182 196 187 203 224 168 173 162 135 128 141 159 84 175 195 196 148 217 236 236 119 153 150 144 133 92 92 113 98 72 82 85 67 66 102 94 120 109
159 156 155 152 147 146 147 132 138 138 91 125 163 154 201 175 237 192 190 124 97 126 142 128 113 148 116 138 88 209 72 249 219 238 239 197 184 155 150 134 133 163 153 134 127 119 114 119 118 110 122 138 135 127
159 152 153 150 147 145 136 142 134 61 92 159 150 192 198 105 64 65 82 127 116 140 125 114 98 164 115 117 179 111 154 236 220 235 180 140 123 137 156 164 153 150 138 125 128 122 121 123 115 102 72 83 91 94
151 147 153 149 143 135 133 118 77 78 52 133 94 125 59 140 123 164 171 113 187 153 130 80 123 139 144 125 165 216 211 225 212 197 108 132 147 160 157 163 156 146 148 142 136 137 127 127 136 128 111 94 89 92
144 94 148 137 128 124 118 82 84 54 108 123 103 14 231 66 114 137 156 139 161 195 143 141 154 170 110 156 235 198 218 267 89 138 136 167 170 159 144 141 140 139 138 139 129 130 127 109 119 122 121 111 105 104
120 134 132 126 115 99 54 48 90 143 121 93 166 137 68 39 106 125 116 143 157 185 156 172 126 175 195 194 223 214 200 101 28 73 125 130 136 133 145 145 142 146 143 139 140 135 134 145 152 149 136 145 130 131
139 140 135 130 121 99 104 88 341 111 71 88 94 64 59 99 67 39 110 109 46 26 119 132 181 210 218 217 211 143 140 172 157 162 121 104 141 150 135 131 134 140 140 147 153 154 162 170 156 152 155 167 166 167
137 137 132 110 78 86 97 82 317 106 124 126 110 100 67 61 78 77 119 88 135 141 167 205 218 219 203 211 192 115 126 136 130 134 138 150 157 150 155 149 150 139 133 130 130 139 146 149 159 158 166 171 160 160
111 107 94 66 62 61 78 101 74 69 118 92 129 108 86 159 116 132 155 148 256 221 235 220 228 192 78 78 32 44 135 161 166 155 156 158 168 168 150 139 137 148 154 161 162 168 172 174 161 156 152 153 133 121
107 103 89 62 81 76 78 18 92 108 84 96 125 145 135 163 133 123 103 203 236 242 211 202 208 151 166 207 175 176 117 106 97 98 92 117 157 168 174 167 159 163 162 170 164 159 166 148 147 147 142 131 130 130
104 60 62 61 80 50 60 292 86 29 103 159 191 126 143 126 75 136 235 230 254 231 202 147 113 47 101 96 94 113 153 158 158 140 139 149 143 144 145 161 171 158 157 163 157 147 145 142 146 147 138 140 142 145
52 56 64 67 69 102 80 55 70 109 114 147 138 127 158 96 132 150 258 248 227 97 194 177 147 116 96 128 198 181 165 176 121 112 140 138 142 153 152 156 160 160 147 142 150 140 141 146 144 150 156 153 159 163
80 30 80 67 57 119 115 134 113 101 108 152 132 162 156 165 158 225 238 254 214 226 169 155 199 240 206 110 116 141 155 177 170 156 167 163 125 116 120 132 145 146 146 142 156 152 150 147 155 160 162 160 162 171
78 0 73 150 139 135 158 130 175 157 132 145 144 90 155 133 226 241 227 193 192 224 202 199 182 183 219 225 152 175 187 191 145 151 174 174 172 166 163 163 168 187 185 165 153 156 156 157 156 159 162 165 165 162
113 166 51 354 77 105 91 70 82 123 152 163 162 163 156 186 232 244 94 192 223 127 265 289 263 194 119 148 124 77 118 132 94 97 126 149 121 146 169 170 183 164 162 163 159 161 157 158 158 162 158 153 165 179
104 174 137 164 101 59 132 141 151 182 167 142 136 181 181 205 237 91 76 63 306 260 170 90 33 22 60 114 120 122 101 101 99 99 88 65 44 52 80 80 110 146 149 152 149 149 155 154 154 156 157 164 164 156
68 97 115 96 141 181 196 170 189 128 75 173 163 196 230 25 32 65 103 119 222 236 153 127 87 88 86 82 80 104 139 145 139 147 160 147 163 191 146 127 133 141 141 137 146 143 145 142 142 146 145 134 122 120
115 234 95 87 156 176 95 11 46 45 35 47 11 289 249 193 61 48 83 134 204 230 67 75 127 132 141 147 142 146 3 18 347 173 175 185 183 137 145 142 145 145 142 139 137 142 133 114 109 104 117 122 134 149
272 195 94 61 116 57 38 70 75 58 25 37 64 258 292 342 89 37 8 359 358 45 123 128 118 119 152 163 170 166 185 203 246 286 332 100 132 141 143 145 146 144 139 137 138 131 131 129 137 141 145 150 158 177
32 54 93 121 89 61 32 18 65 38 31 332 256 295 299 312 286 54 9 341 338 16 328 298 214 189 151 111 143 49 7 137 167 170 141 127 131 136 138 140 140 137 136 130 131 133 140 142 146 147 151 158 164 181
55 55 61 94 80 316 204 145 114 346 225 262 298 23 359 359 322 21 48 13 349 346 351 325 343 18 144 154 97 24 52 133 142 145 140 141 142 141 134 135 133 131 129 126 129 138 144 141 137 142 143 148 162 188